owner,sensor,date,latitude,longitude,sea_surface_height_above_sea_level,qcFlag 
TCOON,ioos:station:TCOON:518:1,2013-12-09T14:54:00Z,29.5150,-94.5133,1.32,1111122 
TCOON,ioos:station:TCOON:518:1,2013-12-09T15:24:00Z,29.5150,-94.5133,1.327,1111122 
TCOON,ioos:station:TCOON:518:1,2013-12-09T16:48:00Z,29.5150,-94.5133,1.328,1111122 
TCOON,ioos:station:TCOON:518:1,2013-12-09T17:24:00Z,29.5150,-94.5133,1.346,1111122 
TCOON,ioos:station:TCOON:518:1,2013-12-09T18:24:00Z,29.5150,-94.5133,1.336,1111122 
TCOON,ioos:station:TCOON:518:1,2013-12-09T19:24:00Z,29.5150,-94.5133,1.292,1111122 
TCOON,ioos:station:TCOON:518:1,2013-12-09T20:24:00Z,29.5150,-94.5133,1.254,1111122 
TCOON,ioos:station:TCOON:518:1,2013-12-09T21:24:00Z,29.5150,-94.5133,1.241,1111122 
TCOON,ioos:station:TCOON:518:1,2013-12-09T22:24:00Z,29.5150,-94.5133,1.249,1111122 
TCOON,ioos:station:TCOON:518:1,2013-12-09T23:24:00Z,29.5150,-94.5133,1.287,1111122 
TCOON,ioos:station:TCOON:518:1,2013-12-10T00:24:00Z,29.5150,-94.5133,1.34,1111122 
TCOON,ioos:station:TCOON:518:1,2013-12-10T01:24:00Z,29.5150,-94.5133,1.34,1111122 
TCOON,ioos:station:TCOON:518:1,2013-12-10T02:24:00Z,29.5150,-94.5133,1.343,1111122 
TCOON,ioos:station:TCOON:518:1,2013-12-10T03:24:00Z,29.5150,-94.5133,1.383,1111122 
TCOON,ioos:station:TCOON:518:1,2013-12-10T04:24:00Z,29.5150,-94.5133,1.377,1111122 
TCOON,ioos:station:TCOON:518:1,2013-12-10T09:24:00Z,29.5150,-94.5133,1.326,1111122 
TCOON,ioos:station:TCOON:518:1,2013-12-10T10:54:00Z,29.5150,-94.5133,1.245,1111122 
TCOON,ioos:station:TCOON:518:1,2013-12-10T12:24:00Z,29.5150,-94.5133,1.144,1111122 
TCOON,ioos:station:TCOON:518:1,2013-12-10T20:24:00Z,29.5150,-94.5133,1.175,1111122 
TCOON,ioos:station:TCOON:518:1,2013-12-11T01:54:00Z,29.5150,-94.5133,1.161,1111122 
TCOON,ioos:station:TCOON:518:1,2013-12-11T17:54:00Z,29.5150,-94.5133,1.215,1111122 
TCOON,ioos:station:TCOON:518:1,2013-12-11T19:24:00Z,29.5150,-94.5133,1.359,1111122 
TCOON,ioos:station:TCOON:518:1,2013-12-11T21:24:00Z,29.5150,-94.5133,1.424,1111122 
TCOON,ioos:station:TCOON:518:1,2013-12-12T11:24:00Z,29.5150,-94.5133,1.152,1111122 
TCOON,ioos:station:TCOON:518:1,2013-12-12T15:24:00Z,29.5150,-94.5133,0.977,1111122 
TCOON,ioos:station:TCOON:518:1,2013-12-12T16:24:00Z,29.5150,-94.5133,0.929,1111122 
TCOON,ioos:station:TCOON:518:1,2013-12-12T17:24:00Z,29.5150,-94.5133,0.945,1111122 
TCOON,ioos:station:TCOON:518:1,2013-12-12T19:24:00Z,29.5150,-94.5133,1.145,1111122 
TCOON,ioos:station:TCOON:518:1,2013-12-12T21:24:00Z,29.5150,-94.5133,1.277,1111122 
TCOON,ioos:station:TCOON:518:1,2013-12-12T22:24:00Z,29.5150,-94.5133,1.33,1111122 
TCOON,ioos:station:TCOON:518:1,2013-12-12T22:54:00Z,29.5150,-94.5133,1.36,1111122 
TCOON,ioos:station:TCOON:518:1,2013-12-12T23:54:00Z,29.5150,-94.5133,1.368,1111122 
TCOON,ioos:station:TCOON:518:1,2013-12-13T00:54:00Z,29.5150,-94.5133,1.346,1111122 
TCOON,ioos:station:TCOON:518:1,2013-12-13T01:54:00Z,29.5150,-94.5133,1.34,1111122 
TCOON,ioos:station:TCOON:518:1,2013-12-13T02:54:00Z,29.5150,-94.5133,1.35,1111122 
TCOON,ioos:station:TCOON:518:1,2013-12-13T03:54:00Z,29.5150,-94.5133,1.369,1111122 
TCOON,ioos:station:TCOON:518:1,2013-12-13T04:54:00Z,29.5150,-94.5133,1.365,1111122 
TCOON,ioos:station:TCOON:518:1,2013-12-13T06:18:00Z,29.5150,-94.5133,1.361,1111122 
TCOON,ioos:station:TCOON:518:1,2013-12-13T06:48:00Z,29.5150,-94.5133,1.392,1111122 
TCOON,ioos:station:TCOON:518:1,2013-12-13T07:18:00Z,29.5150,-94.5133,1.42,1111122 
TCOON,ioos:station:TCOON:518:1,2013-12-13T07:48:00Z,29.5150,-94.5133,1.45,1111122 
TCOON,ioos:station:TCOON:518:1,2013-12-13T08:18:00Z,29.5150,-94.5133,1.461,1111122 
TCOON,ioos:station:TCOON:518:1,2013-12-13T08:48:00Z,29.5150,-94.5133,1.457,1111122 
TCOON,ioos:station:TCOON:518:1,2013-12-13T09:18:00Z,29.5150,-94.5133,1.444,1111122 
TCOON,ioos:station:TCOON:518:1,2013-12-13T09:48:00Z,29.5150,-94.5133,1.424,1111122 
TCOON,ioos:station:TCOON:518:1,2013-12-13T10:18:00Z,29.5150,-94.5133,1.391,1111122 
TCOON,ioos:station:TCOON:518:1,2013-12-13T10:48:00Z,29.5150,-94.5133,1.366,1111122 
TCOON,ioos:station:TCOON:518:1,2013-12-13T11:18:00Z,29.5150,-94.5133,1.328,1111122 
TCOON,ioos:station:TCOON:518:1,2013-12-13T11:48:00Z,29.5150,-94.5133,1.307,1111122 
TCOON,ioos:station:TCOON:518:1,2013-12-13T12:18:00Z,29.5150,-94.5133,1.289,1111122 
TCOON,ioos:station:TCOON:518:1,2013-12-13T12:48:00Z,29.5150,-94.5133,1.272,1111122 
TCOON,ioos:station:TCOON:518:1,2013-12-13T13:24:00Z,29.5150,-94.5133,1.252,1111122 
TCOON,ioos:station:TCOON:518:1,2013-12-13T13:48:00Z,29.5150,-94.5133,1.173,1111122 
TCOON,ioos:station:TCOON:518:1,2013-12-13T14:24:00Z,29.5150,-94.5133,1.187,1111122 
TCOON,ioos:station:TCOON:518:1,2013-12-13T14:48:00Z,29.5150,-94.5133,1.17,1111122 
TCOON,ioos:station:TCOON:518:1,2013-12-13T15:18:00Z,29.5150,-94.5133,1.144,1111122 
TCOON,ioos:station:TCOON:518:1,2013-12-13T16:48:00Z,29.5150,-94.5133,1.062,1111122 
TCOON,ioos:station:TCOON:518:1,2013-12-13T17:06:00Z,29.5150,-94.5133,1.085,1111122 
TCOON,ioos:station:TCOON:518:1,2013-12-13T17:36:00Z,29.5150,-94.5133,1.083,1111122 
TCOON,ioos:station:TCOON:518:1,2013-12-13T18:06:00Z,29.5150,-94.5133,1.091,1111122 
TCOON,ioos:station:TCOON:518:1,2013-12-13T18:36:00Z,29.5150,-94.5133,1.12,1111122 
TCOON,ioos:station:TCOON:518:1,2013-12-13T19:06:00Z,29.5150,-94.5133,1.173,1111122 
TCOON,ioos:station:TCOON:518:1,2013-12-13T19:36:00Z,29.5150,-94.5133,1.239,1111122 
TCOON,ioos:station:TCOON:518:1,2013-12-13T20:06:00Z,29.5150,-94.5133,1.284,1111122 
TCOON,ioos:station:TCOON:518:1,2013-12-13T20:36:00Z,29.5150,-94.5133,1.332,1111122 
TCOON,ioos:station:TCOON:518:1,2013-12-13T21:06:00Z,29.5150,-94.5133,1.382,1111122 
TCOON,ioos:station:TCOON:518:1,2013-12-13T21:36:00Z,29.5150,-94.5133,1.424,1111122 
TCOON,ioos:station:TCOON:518:1,2013-12-13T22:06:00Z,29.5150,-94.5133,1.456,1111122 
TCOON,ioos:station:TCOON:518:1,2013-12-13T22:36:00Z,29.5150,-94.5133,1.515,1111122 
TCOON,ioos:station:TCOON:518:1,2013-12-13T23:06:00Z,29.5150,-94.5133,1.543,1111122 
TCOON,ioos:station:TCOON:518:1,2013-12-13T23:36:00Z,29.5150,-94.5133,1.568,1111122 
TCOON,ioos:station:TCOON:518:1,2013-12-14T00:06:00Z,29.5150,-94.5133,1.601,1111122 
TCOON,ioos:station:TCOON:518:1,2013-12-14T00:36:00Z,29.5150,-94.5133,1.614,1111122 
TCOON,ioos:station:TCOON:518:1,2013-12-14T01:06:00Z,29.5150,-94.5133,1.6,1111122 
TCOON,ioos:station:TCOON:518:1,2013-12-14T01:36:00Z,29.5150,-94.5133,1.621,1111122 
TCOON,ioos:station:TCOON:518:1,2013-12-14T02:06:00Z,29.5150,-94.5133,1.63,1111122 
TCOON,ioos:station:TCOON:518:1,2013-12-14T02:36:00Z,29.5150,-94.5133,1.619,1111122 
TCOON,ioos:station:TCOON:518:1,2013-12-14T03:06:00Z,29.5150,-94.5133,1.637,1111122 
TCOON,ioos:station:TCOON:518:1,2013-12-14T03:36:00Z,29.5150,-94.5133,1.629,1111122 
TCOON,ioos:station:TCOON:518:1,2013-12-14T04:06:00Z,29.5150,-94.5133,1.621,1111122 
TCOON,ioos:station:TCOON:518:1,2013-12-14T04:36:00Z,29.5150,-94.5133,1.633,1111122 
TCOON,ioos:station:TCOON:518:1,2013-12-14T05:06:00Z,29.5150,-94.5133,1.629,1111122 
TCOON,ioos:station:TCOON:518:1,2013-12-14T06:06:00Z,29.5150,-94.5133,1.634,1111122 
TCOON,ioos:station:TCOON:518:1,2013-12-14T06:36:00Z,29.5150,-94.5133,1.64,1111122 
TCOON,ioos:station:TCOON:518:1,2013-12-14T07:06:00Z,29.5150,-94.5133,1.63,1111122 
TCOON,ioos:station:TCOON:518:1,2013-12-14T07:36:00Z,29.5150,-94.5133,1.612,1111122 
TCOON,ioos:station:TCOON:518:1,2013-12-14T08:06:00Z,29.5150,-94.5133,1.594,1111122 
TCOON,ioos:station:TCOON:518:1,2013-12-14T08:36:00Z,29.5150,-94.5133,1.582,1111122 
TCOON,ioos:station:TCOON:518:1,2013-12-14T09:06:00Z,29.5150,-94.5133,1.563,1111122 
TCOON,ioos:station:TCOON:518:1,2013-12-14T09:36:00Z,29.5150,-94.5133,1.549,1111122 
TCOON,ioos:station:TCOON:518:1,2013-12-14T10:06:00Z,29.5150,-94.5133,1.521,1111122 
TCOON,ioos:station:TCOON:518:1,2013-12-14T10:36:00Z,29.5150,-94.5133,1.454,1111122 
TCOON,ioos:station:TCOON:518:1,2013-12-14T11:06:00Z,29.5150,-94.5133,1.451,1111122 
TCOON,ioos:station:TCOON:518:1,2013-12-14T11:36:00Z,29.5150,-94.5133,1.424,1111122 
TCOON,ioos:station:TCOON:518:1,2013-12-14T12:06:00Z,29.5150,-94.5133,1.399,1111122 
TCOON,ioos:station:TCOON:518:1,2013-12-14T12:36:00Z,29.5150,-94.5133,1.362,1111122 
TCOON,ioos:station:TCOON:518:1,2013-12-14T13:06:00Z,29.5150,-94.5133,1.335,1111122 
TCOON,ioos:station:TCOON:518:1,2013-12-14T13:36:00Z,29.5150,-94.5133,1.299,1111122 
TCOON,ioos:station:TCOON:518:1,2013-12-14T14:06:00Z,29.5150,-94.5133,1.256,1111122 
TCOON,ioos:station:TCOON:518:1,2013-12-14T14:36:00Z,29.5150,-94.5133,1.246,1111122 
TCOON,ioos:station:TCOON:518:1,2013-12-14T15:06:00Z,29.5150,-94.5133,1.235,1111122 
TCOON,ioos:station:TCOON:518:1,2013-12-14T15:36:00Z,29.5150,-94.5133,1.208,1111122 
TCOON,ioos:station:TCOON:518:1,2013-12-14T16:06:00Z,29.5150,-94.5133,1.173,1111122 
TCOON,ioos:station:TCOON:518:1,2013-12-14T16:36:00Z,29.5150,-94.5133,1.147,1111122 
TCOON,ioos:station:TCOON:518:1,2013-12-14T17:06:00Z,29.5150,-94.5133,1.133,1111122 
TCOON,ioos:station:TCOON:518:1,2013-12-14T17:36:00Z,29.5150,-94.5133,1.134,1111122 
TCOON,ioos:station:TCOON:518:1,2013-12-14T18:06:00Z,29.5150,-94.5133,1.13,1111122 
TCOON,ioos:station:TCOON:518:1,2013-12-14T18:36:00Z,29.5150,-94.5133,1.132,1111122 
TCOON,ioos:station:TCOON:518:1,2013-12-14T19:06:00Z,29.5150,-94.5133,1.212,1111122 
TCOON,ioos:station:TCOON:518:1,2013-12-14T19:36:00Z,29.5150,-94.5133,1.256,1111122 
TCOON,ioos:station:TCOON:518:1,2013-12-14T20:12:00Z,29.5150,-94.5133,1.319,1111122 
TCOON,ioos:station:TCOON:518:1,2013-12-14T20:42:00Z,29.5150,-94.5133,1.334,1111122 
TCOON,ioos:station:TCOON:518:1,2013-12-14T21:12:00Z,29.5150,-94.5133,1.395,1111122 
TCOON,ioos:station:TCOON:518:1,2013-12-14T21:42:00Z,29.5150,-94.5133,1.436,1111122 
TCOON,ioos:station:TCOON:518:1,2013-12-14T22:06:00Z,29.5150,-94.5133,1.474,1111122 
TCOON,ioos:station:TCOON:518:1,2013-12-14T22:42:00Z,29.5150,-94.5133,1.496,1111122 
TCOON,ioos:station:TCOON:518:1,2013-12-14T23:12:00Z,29.5150,-94.5133,1.524,1111122 
TCOON,ioos:station:TCOON:518:1,2013-12-14T23:42:00Z,29.5150,-94.5133,1.516,1111122 
TCOON,ioos:station:TCOON:518:1,2013-12-15T00:12:00Z,29.5150,-94.5133,1.467,1111122 
TCOON,ioos:station:TCOON:518:1,2013-12-15T00:42:00Z,29.5150,-94.5133,1.434,1111122 
TCOON,ioos:station:TCOON:518:1,2013-12-15T01:12:00Z,29.5150,-94.5133,1.412,1111122 
TCOON,ioos:station:TCOON:518:1,2013-12-15T01:42:00Z,29.5150,-94.5133,1.388,1111122 
TCOON,ioos:station:TCOON:518:1,2013-12-15T02:12:00Z,29.5150,-94.5133,1.335,1111122 
TCOON,ioos:station:TCOON:518:1,2013-12-15T02:42:00Z,29.5150,-94.5133,1.314,1111122 
TCOON,ioos:station:TCOON:518:1,2013-12-15T03:06:00Z,29.5150,-94.5133,1.245,1111122 
TCOON,ioos:station:TCOON:518:1,2013-12-15T03:42:00Z,29.5150,-94.5133,1.219,1111122 
TCOON,ioos:station:TCOON:518:1,2013-12-15T04:12:00Z,29.5150,-94.5133,1.225,1111122 
TCOON,ioos:station:TCOON:518:1,2013-12-15T04:42:00Z,29.5150,-94.5133,1.175,1111122 
TCOON,ioos:station:TCOON:518:1,2013-12-15T05:12:00Z,29.5150,-94.5133,1.132,1111122 
TCOON,ioos:station:TCOON:518:1,2013-12-15T05:42:00Z,29.5150,-94.5133,1.109,1111122 
TCOON,ioos:station:TCOON:518:1,2013-12-15T06:12:00Z,29.5150,-94.5133,1.099,1111122 
TCOON,ioos:station:TCOON:518:1,2013-12-15T06:42:00Z,29.5150,-94.5133,1.07,1111122 
TCOON,ioos:station:TCOON:518:1,2013-12-15T07:12:00Z,29.5150,-94.5133,1.066,1111122 
TCOON,ioos:station:TCOON:518:1,2013-12-15T07:42:00Z,29.5150,-94.5133,1.041,1111122 
TCOON,ioos:station:TCOON:518:1,2013-12-15T08:12:00Z,29.5150,-94.5133,1.054,1111122 
TCOON,ioos:station:TCOON:518:1,2013-12-15T08:42:00Z,29.5150,-94.5133,1.04,1111122 
TCOON,ioos:station:TCOON:518:1,2013-12-15T09:12:00Z,29.5150,-94.5133,1.029,1111122 
TCOON,ioos:station:TCOON:518:1,2013-12-15T09:42:00Z,29.5150,-94.5133,1.035,1111122 
TCOON,ioos:station:TCOON:518:1,2013-12-15T10:12:00Z,29.5150,-94.5133,1.042,1111122 
TCOON,ioos:station:TCOON:518:1,2013-12-15T10:42:00Z,29.5150,-94.5133,1.031,1111122 
TCOON,ioos:station:TCOON:518:1,2013-12-15T11:12:00Z,29.5150,-94.5133,0.965,1111122 
TCOON,ioos:station:TCOON:518:1,2013-12-15T11:42:00Z,29.5150,-94.5133,0.99,1111122 
TCOON,ioos:station:TCOON:518:1,2013-12-15T12:12:00Z,29.5150,-94.5133,0.986,1111122 
TCOON,ioos:station:TCOON:518:1,2013-12-15T12:42:00Z,29.5150,-94.5133,0.961,1111122 
TCOON,ioos:station:TCOON:518:1,2013-12-15T13:12:00Z,29.5150,-94.5133,0.93,1111122 
TCOON,ioos:station:TCOON:518:1,2013-12-15T13:42:00Z,29.5150,-94.5133,0.912,1111122 
TCOON,ioos:station:TCOON:518:1,2013-12-15T14:12:00Z,29.5150,-94.5133,0.872,1111122 
TCOON,ioos:station:TCOON:518:1,2013-12-15T14:42:00Z,29.5150,-94.5133,0.861,1111122 
TCOON,ioos:station:TCOON:518:1,2013-12-15T15:12:00Z,29.5150,-94.5133,0.816,1111122 
TCOON,ioos:station:TCOON:518:1,2013-12-15T15:48:00Z,29.5150,-94.5133,0.797,1111122 
TCOON,ioos:station:TCOON:518:1,2013-12-15T16:12:00Z,29.5150,-94.5133,0.776,1111122 
TCOON,ioos:station:TCOON:518:1,2013-12-15T16:42:00Z,29.5150,-94.5133,0.715,1111122 
TCOON,ioos:station:TCOON:518:1,2013-12-15T17:12:00Z,29.5150,-94.5133,0.712,1111122 
TCOON,ioos:station:TCOON:518:1,2013-12-15T17:42:00Z,29.5150,-94.5133,0.7,1111122 
TCOON,ioos:station:TCOON:518:1,2013-12-15T18:12:00Z,29.5150,-94.5133,0.689,1111122 
TCOON,ioos:station:TCOON:518:1,2013-12-15T18:42:00Z,29.5150,-94.5133,0.703,1111122 
TCOON,ioos:station:TCOON:518:1,2013-12-15T19:12:00Z,29.5150,-94.5133,0.725,1111122 
TCOON,ioos:station:TCOON:518:1,2013-12-15T19:42:00Z,29.5150,-94.5133,0.729,1111122 
TCOON,ioos:station:TCOON:518:1,2013-12-15T20:12:00Z,29.5150,-94.5133,0.768,1111122 
TCOON,ioos:station:TCOON:518:1,2013-12-15T20:42:00Z,29.5150,-94.5133,0.812,1111122 
TCOON,ioos:station:TCOON:518:1,2013-12-15T21:18:00Z,29.5150,-94.5133,0.877,1111122 
TCOON,ioos:station:TCOON:518:1,2013-12-15T21:42:00Z,29.5150,-94.5133,0.905,1111122 
TCOON,ioos:station:TCOON:518:1,2013-12-15T22:12:00Z,29.5150,-94.5133,0.958,1111122 
TCOON,ioos:station:TCOON:518:1,2013-12-15T22:48:00Z,29.5150,-94.5133,1.013,1111122 
TCOON,ioos:station:TCOON:518:1,2013-12-15T23:12:00Z,29.5150,-94.5133,1.041,1111122 
TCOON,ioos:station:TCOON:518:1,2013-12-15T23:48:00Z,29.5150,-94.5133,1.079,1111122 
TCOON,ioos:station:TCOON:518:1,2013-12-16T00:18:00Z,29.5150,-94.5133,1.111,1111122 
TCOON,ioos:station:TCOON:518:1,2013-12-16T00:48:00Z,29.5150,-94.5133,1.143,1111122 
TCOON,ioos:station:TCOON:518:1,2013-12-16T01:18:00Z,29.5150,-94.5133,1.163,1111122 
TCOON,ioos:station:TCOON:518:1,2013-12-16T01:48:00Z,29.5150,-94.5133,1.175,1111122 
TCOON,ioos:station:TCOON:518:1,2013-12-16T02:18:00Z,29.5150,-94.5133,1.201,1111122 
TCOON,ioos:station:TCOON:518:1,2013-12-16T02:48:00Z,29.5150,-94.5133,1.193,1111122 
TCOON,ioos:station:TCOON:518:1,2013-12-16T03:18:00Z,29.5150,-94.5133,1.206,1111122 
TCOON,ioos:station:TCOON:518:1,2013-12-16T03:48:00Z,29.5150,-94.5133,1.216,1111122 
TCOON,ioos:station:TCOON:518:1,2013-12-16T04:18:00Z,29.5150,-94.5133,1.192,1111122 
TCOON,ioos:station:TCOON:518:1,2013-12-16T04:48:00Z,29.5150,-94.5133,1.192,1111122 
TCOON,ioos:station:TCOON:518:1,2013-12-16T05:18:00Z,29.5150,-94.5133,1.19,1111122 
TCOON,ioos:station:TCOON:518:1,2013-12-16T05:48:00Z,29.5150,-94.5133,1.193,1111122 
TCOON,ioos:station:TCOON:518:1,2013-12-16T06:18:00Z,29.5150,-94.5133,1.212,1111122 
TCOON,ioos:station:TCOON:518:1,2013-12-16T06:48:00Z,29.5150,-94.5133,1.234,1111122 
TCOON,ioos:station:TCOON:518:1,2013-12-16T07:18:00Z,29.5150,-94.5133,1.255,1111122 
TCOON,ioos:station:TCOON:518:1,2013-12-16T07:48:00Z,29.5150,-94.5133,1.269,1111122 
TCOON,ioos:station:TCOON:518:1,2013-12-16T08:18:00Z,29.5150,-94.5133,1.301,1111122 
TCOON,ioos:station:TCOON:518:1,2013-12-16T08:48:00Z,29.5150,-94.5133,1.302,1111122 
TCOON,ioos:station:TCOON:518:1,2013-12-16T09:18:00Z,29.5150,-94.5133,1.336,1111122 
TCOON,ioos:station:TCOON:518:1,2013-12-16T09:48:00Z,29.5150,-94.5133,1.348,1111122 
TCOON,ioos:station:TCOON:518:1,2013-12-16T10:18:00Z,29.5150,-94.5133,1.344,1111122 
TCOON,ioos:station:TCOON:518:1,2013-12-16T10:48:00Z,29.5150,-94.5133,1.326,1111122 
TCOON,ioos:station:TCOON:518:1,2013-12-16T11:18:00Z,29.5150,-94.5133,1.315,1111122 
TCOON,ioos:station:TCOON:518:1,2013-12-16T11:48:00Z,29.5150,-94.5133,1.295,1111122 
TCOON,ioos:station:TCOON:518:1,2013-12-16T12:18:00Z,29.5150,-94.5133,1.256,1111122 
TCOON,ioos:station:TCOON:518:1,2013-12-16T12:48:00Z,29.5150,-94.5133,1.223,1111122 
TCOON,ioos:station:TCOON:518:1,2013-12-16T13:18:00Z,29.5150,-94.5133,1.205,1111122 
TCOON,ioos:station:TCOON:518:1,2013-12-16T13:48:00Z,29.5150,-94.5133,1.165,1111122 
TCOON,ioos:station:TCOON:518:1,2013-12-16T14:18:00Z,29.5150,-94.5133,1.138,1111122 
TCOON,ioos:station:TCOON:518:1,2013-12-16T14:48:00Z,29.5150,-94.5133,1.091,1111122 
TCOON,ioos:station:TCOON:518:1,2013-12-16T15:18:00Z,29.5150,-94.5133,1.059,1111122 
TCOON,ioos:station:TCOON:518:1,2013-12-16T15:48:00Z,29.5150,-94.5133,1.042,1111122 
TCOON,ioos:station:TCOON:518:1,2013-12-16T16:18:00Z,29.5150,-94.5133,0.962,1111122 
TCOON,ioos:station:TCOON:518:1,2013-12-16T16:48:00Z,29.5150,-94.5133,0.98,1111122 
TCOON,ioos:station:TCOON:518:1,2013-12-16T17:18:00Z,29.5150,-94.5133,0.957,1111122 
TCOON,ioos:station:TCOON:518:1,2013-12-16T17:48:00Z,29.5150,-94.5133,0.946,1111122 
TCOON,ioos:station:TCOON:518:1,2013-12-16T18:18:00Z,29.5150,-94.5133,0.94,1111122 
TCOON,ioos:station:TCOON:518:1,2013-12-16T18:48:00Z,29.5150,-94.5133,0.927,1111122 
TCOON,ioos:station:TCOON:518:1,2013-12-16T19:18:00Z,29.5150,-94.5133,0.92,1111122 
TCOON,ioos:station:TCOON:518:1,2013-12-16T19:48:00Z,29.5150,-94.5133,0.929,1111122 
TCOON,ioos:station:TCOON:518:1,2013-12-16T20:18:00Z,29.5150,-94.5133,0.958,1111122 
TCOON,ioos:station:TCOON:518:1,2013-12-16T20:48:00Z,29.5150,-94.5133,0.972,1111122 
TCOON,ioos:station:TCOON:518:1,2013-12-16T21:18:00Z,29.5150,-94.5133,1.03,1111122 
TCOON,ioos:station:TCOON:518:1,2013-12-16T21:48:00Z,29.5150,-94.5133,1.092,1111122 
TCOON,ioos:station:TCOON:518:1,2013-12-16T22:18:00Z,29.5150,-94.5133,1.14,1111122 
TCOON,ioos:station:TCOON:518:1,2013-12-16T22:48:00Z,29.5150,-94.5133,1.188,1111122 
TCOON,ioos:station:TCOON:518:1,2013-12-16T23:18:00Z,29.5150,-94.5133,1.23,1111122 
TCOON,ioos:station:TCOON:518:1,2013-12-16T23:48:00Z,29.5150,-94.5133,1.263,1111122 
TCOON,ioos:station:TCOON:518:1,2013-12-17T00:18:00Z,29.5150,-94.5133,1.283,1111122 
TCOON,ioos:station:TCOON:518:1,2013-12-17T00:48:00Z,29.5150,-94.5133,1.291,1111122 
TCOON,ioos:station:TCOON:518:1,2013-12-17T01:18:00Z,29.5150,-94.5133,1.31,1111122 
TCOON,ioos:station:TCOON:518:1,2013-12-17T01:48:00Z,29.5150,-94.5133,1.333,1111122 
TCOON,ioos:station:TCOON:518:1,2013-12-17T02:18:00Z,29.5150,-94.5133,1.353,1111122 
TCOON,ioos:station:TCOON:518:1,2013-12-17T02:48:00Z,29.5150,-94.5133,1.357,1111122 
TCOON,ioos:station:TCOON:518:1,2013-12-17T03:18:00Z,29.5150,-94.5133,1.382,1111122 
TCOON,ioos:station:TCOON:518:1,2013-12-17T03:48:00Z,29.5150,-94.5133,1.394,1111122 
TCOON,ioos:station:TCOON:518:1,2013-12-17T04:18:00Z,29.5150,-94.5133,1.398,1111122 
TCOON,ioos:station:TCOON:518:1,2013-12-17T04:48:00Z,29.5150,-94.5133,1.416,1111122 
TCOON,ioos:station:TCOON:518:1,2013-12-17T05:18:00Z,29.5150,-94.5133,1.414,1111122 
TCOON,ioos:station:TCOON:518:1,2013-12-17T05:48:00Z,29.5150,-94.5133,1.412,1111122 
TCOON,ioos:station:TCOON:518:1,2013-12-17T06:18:00Z,29.5150,-94.5133,1.429,1111122 
TCOON,ioos:station:TCOON:518:1,2013-12-17T06:48:00Z,29.5150,-94.5133,1.426,1111122 
TCOON,ioos:station:TCOON:518:1,2013-12-17T07:18:00Z,29.5150,-94.5133,1.421,1111122 
TCOON,ioos:station:TCOON:518:1,2013-12-17T07:48:00Z,29.5150,-94.5133,1.432,1111122 
TCOON,ioos:station:TCOON:518:1,2013-12-17T08:18:00Z,29.5150,-94.5133,1.429,1111122 
TCOON,ioos:station:TCOON:518:1,2013-12-17T08:48:00Z,29.5150,-94.5133,1.435,1111122 
TCOON,ioos:station:TCOON:518:1,2013-12-17T09:18:00Z,29.5150,-94.5133,1.434,1111122 
TCOON,ioos:station:TCOON:518:1,2013-12-17T09:48:00Z,29.5150,-94.5133,1.414,1111122 
TCOON,ioos:station:TCOON:518:1,2013-12-17T10:18:00Z,29.5150,-94.5133,1.415,1111122 
TCOON,ioos:station:TCOON:518:1,2013-12-17T10:48:00Z,29.5150,-94.5133,1.393,1111122 
TCOON,ioos:station:TCOON:518:1,2013-12-17T11:18:00Z,29.5150,-94.5133,1.361,1111122 
TCOON,ioos:station:TCOON:518:1,2013-12-17T11:48:00Z,29.5150,-94.5133,1.331,1111122 
TCOON,ioos:station:TCOON:518:1,2013-12-17T12:18:00Z,29.5150,-94.5133,1.293,1111122 
TCOON,ioos:station:TCOON:518:1,2013-12-17T12:48:00Z,29.5150,-94.5133,1.267,1111122 
TCOON,ioos:station:TCOON:518:1,2013-12-17T13:18:00Z,29.5150,-94.5133,1.238,1111122 
TCOON,ioos:station:TCOON:518:1,2013-12-17T13:48:00Z,29.5150,-94.5133,1.196,1111122 
TCOON,ioos:station:TCOON:518:1,2013-12-17T14:18:00Z,29.5150,-94.5133,1.161,1111122 
TCOON,ioos:station:TCOON:518:1,2013-12-17T14:48:00Z,29.5150,-94.5133,1.127,1111122 
TCOON,ioos:station:TCOON:518:1,2013-12-17T15:18:00Z,29.5150,-94.5133,1.092,1111122 
TCOON,ioos:station:TCOON:518:1,2013-12-17T15:48:00Z,29.5150,-94.5133,1.059,1111122 
TCOON,ioos:station:TCOON:518:1,2013-12-17T16:24:00Z,29.5150,-94.5133,1.02,1111122 
TCOON,ioos:station:TCOON:518:1,2013-12-17T16:48:00Z,29.5150,-94.5133,0.994,1111122 
TCOON,ioos:station:TCOON:518:1,2013-12-17T17:18:00Z,29.5150,-94.5133,0.942,1111122 
TCOON,ioos:station:TCOON:518:1,2013-12-17T17:48:00Z,29.5150,-94.5133,0.948,1111122 
TCOON,ioos:station:TCOON:518:1,2013-12-17T18:18:00Z,29.5150,-94.5133,0.935,1111122 
TCOON,ioos:station:TCOON:518:1,2013-12-17T18:48:00Z,29.5150,-94.5133,0.928,1111122 
TCOON,ioos:station:TCOON:518:1,2013-12-17T19:24:00Z,29.5150,-94.5133,0.917,1111122 
TCOON,ioos:station:TCOON:518:1,2013-12-17T19:48:00Z,29.5150,-94.5133,0.916,1111122 
TCOON,ioos:station:TCOON:518:1,2013-12-17T20:24:00Z,29.5150,-94.5133,0.939,1111122 
TCOON,ioos:station:TCOON:518:1,2013-12-17T20:54:00Z,29.5150,-94.5133,0.956,1111122 
TCOON,ioos:station:TCOON:518:1,2013-12-17T21:48:00Z,29.5150,-94.5133,0.993,1111122 
TCOON,ioos:station:TCOON:518:1,2013-12-17T22:24:00Z,29.5150,-94.5133,1.104,1111122 
TCOON,ioos:station:TCOON:518:1,2013-12-17T23:24:00Z,29.5150,-94.5133,1.189,1111122 
TCOON,ioos:station:TCOON:518:1,2013-12-18T00:18:00Z,29.5150,-94.5133,1.253,1111122 
TCOON,ioos:station:TCOON:518:1,2013-12-18T00:48:00Z,29.5150,-94.5133,1.285,1111122 
TCOON,ioos:station:TCOON:518:1,2013-12-18T01:18:00Z,29.5150,-94.5133,1.306,1111122 
TCOON,ioos:station:TCOON:518:1,2013-12-18T01:48:00Z,29.5150,-94.5133,1.319,1111122 
TCOON,ioos:station:TCOON:518:1,2013-12-18T02:18:00Z,29.5150,-94.5133,1.37,1111122 
TCOON,ioos:station:TCOON:518:1,2013-12-18T02:48:00Z,29.5150,-94.5133,1.367,1111122 
TCOON,ioos:station:TCOON:518:1,2013-12-18T03:18:00Z,29.5150,-94.5133,1.385,1111122 
TCOON,ioos:station:TCOON:518:1,2013-12-18T03:48:00Z,29.5150,-94.5133,1.386,1111122 
TCOON,ioos:station:TCOON:518:1,2013-12-18T04:18:00Z,29.5150,-94.5133,1.393,1111122 
TCOON,ioos:station:TCOON:518:1,2013-12-18T04:48:00Z,29.5150,-94.5133,1.389,1111122 
TCOON,ioos:station:TCOON:518:1,2013-12-18T05:48:00Z,29.5150,-94.5133,1.372,1111122 
TCOON,ioos:station:TCOON:518:1,2013-12-18T06:18:00Z,29.5150,-94.5133,1.378,1111122 
TCOON,ioos:station:TCOON:518:1,2013-12-18T06:48:00Z,29.5150,-94.5133,1.374,1111122 
TCOON,ioos:station:TCOON:518:1,2013-12-18T07:18:00Z,29.5150,-94.5133,1.373,1111122 
TCOON,ioos:station:TCOON:518:1,2013-12-18T07:48:00Z,29.5150,-94.5133,1.364,1111122 
TCOON,ioos:station:TCOON:518:1,2013-12-18T08:18:00Z,29.5150,-94.5133,1.355,1111122 
TCOON,ioos:station:TCOON:518:1,2013-12-18T08:48:00Z,29.5150,-94.5133,1.352,1111122 
TCOON,ioos:station:TCOON:518:1,2013-12-18T09:18:00Z,29.5150,-94.5133,1.345,1111122 
TCOON,ioos:station:TCOON:518:1,2013-12-18T09:48:00Z,29.5150,-94.5133,1.336,1111122 
TCOON,ioos:station:TCOON:518:1,2013-12-18T10:18:00Z,29.5150,-94.5133,1.321,1111122 
TCOON,ioos:station:TCOON:518:1,2013-12-18T10:48:00Z,29.5150,-94.5133,1.307,1111122 
TCOON,ioos:station:TCOON:518:1,2013-12-18T11:18:00Z,29.5150,-94.5133,1.283,1111122 
TCOON,ioos:station:TCOON:518:1,2013-12-18T11:48:00Z,29.5150,-94.5133,1.255,1111122 
TCOON,ioos:station:TCOON:518:1,2013-12-18T12:18:00Z,29.5150,-94.5133,1.246,1111122 
TCOON,ioos:station:TCOON:518:1,2013-12-18T12:48:00Z,29.5150,-94.5133,1.187,1111122 
TCOON,ioos:station:TCOON:518:1,2013-12-18T13:18:00Z,29.5150,-94.5133,1.188,1111122 